Tracking 20942 objects as of 14-Jul-2020
HD Live streaming from Space Station
objects crossing your sky now

DELTA 1 DEB

Track DELTA 1 DEB now!
10-day predictions


NORAD ID: 12255
Int'l Code: 1978-026CY
Perigee: 888.1 km
Apogee: 908.0 km
Inclination: 98.7 °
Period: 102.8 minutes
Semi major axis: 7269 km
RCS: 0.0045 m2 (small)
Launch date: March 5, 1978
Source: United States (US)
Launch site: AIR FORCE WESTERN TEST RANGE (AFWTR)

Note: This is SATELLITE DEBRIS
aabbcc
Your satellite tracking list
Your tracking list is empty




NASA's NSSDC Master Catalog

Two Line Element Set (TLE):
1 12255U 78026CY  20195.91484472 -.00000204  00000-0 -10898-3 0  9991
2 12255  98.6931 178.7769 0013630 289.2621  99.8686 14.00833786326570
Source of the keplerian elements: AFSPC